METEOR 2-7 DEB

Satellite information

Favourite Embed

Satellite Type and Status

DEBRISIN ORBIT

Key statistics

Satellite METEOR 2-7 DEB at a glance.

Uptime

16066

Days in orbit

Revolutions

≈ 14.3

Per day

Orbit

LEO

Low Earth Orbit

Inclination

81.3

Latest

Satellite identification and parameters

Extended collection of information and parameters for METEOR 2-7 DEB.

Object identification

Identified? True

Debris? True

Object name: METEOR 2-7 DEB

International designator: 1981-043X

Object number (NORAD): 43300

Object ID (CCSDS): 43300

Country: COMMONWEALTH OF INDEPENDENT STATES (CIS)

Current information (Y/N): Y

RCS size: SMALL

Orbital parameters

Period: 100.765 minutes

Inclination: 81.2553 deg

SMA: 7172.985 km

Apoapsis: 821.78 km

Periapsis: 767.921 km

RAAN: 104.2843 deg

Eccentricy: 0.0037543

Argument of periapsis: 116.2684 deg

Mean anomaly: 244.2363 deg

Mean motion: 14.29067804 rev/day

Mean motion (dot): 0.00005389 rev/day2

B* drag term: 0.0021067 1/REarth

Two-line elements (TLE)

Creation date: May 9, 2025, 2:46 a.m.

Reference frame: TEME

Reference center: EARTH

Epoch: May 8, 2025, 4:42 a.m. UTC

TLE line 0: 0 METEOR 2-7 DEB

TLE line 1: 1 43300U 81043X 25128.19624602 .00005389 00000-0 21067-2 0 9997

TLE line 2: 2 43300 81.2553 104.2843 0037543 116.2684 244.2363 14.29067804497340

Live tracking on map

Real-time ground track for satellite METEOR 2-7 DEB.

In-orbit conjunctions

A list of the most updated potential collisions computed for object METEOR 2-7 DEB.

Target Orbit TCA Probability of collision Miss distance Type
COSMOS 1275 DEB LEO 2025-04-01 15:23:12 0.0001168235 81.0 (m) DEBRIS
FENGYUN 1C DEB SSO 2024-12-27 21:35:10 0.0002082514 60.0 (m) DEBRIS

Associated space launch

Second generation soviet meteorological satellite

METEOR 2-7 DEB was lifted into orbit during the mission ‘Vostok 8A92M | Meteor-2 7’, on board a Vostok 8A92M space rocket.

The launch took place on May 14, 1981, 9:45 p.m. from 43/3 (43L).

For more information about the launch, click the button.

Launch to space Vostok 8A92M | Meteor-2 7
Vostok 8A92M | Meteor-2 7

Agency: N/A

Status: Launch Successful

Launch date: May 14, 1981, 9:45 p.m. UTC

Rocket: Vostok 8A92M

Launch pad: 43/3 (43L)

Location: Plesetsk Cosmodrome, Russian Federation

...

Latest news about this satellite

There are no fresh news available about this satellite. Check back as we update our databases every day.


Newsletter sign-up

Weekly statistics, charts and insights to help you stay on top of the space industry.